Regional Weather Roundup
Issued by NWS Green Bay, WI

Home | Current Version | Previous Version | Graphics & Text | Print | Product List | Glossary Off
Versions: 1 2 3 4 5 6 7 8 9 10 11 12 13 14 15 16 17 18 19 20 21 22 23 24 25 26 27 28 29 30 31 32 33 34 35 36 37 38 39 40 41 42 43 44 45 46 47 48 49 50

000
ASUS43 KGRB 121210
RWRGRB

NORTH-CENTRAL AND NORTHEAST WISCONSIN REGIONAL WEATHER ROUNDUP
NATIONAL WEATHER SERVICE GREEN BAY WI
700 AM CDT SAT JUL 12 2014

WIZ005-009-010>012-018-019-121300-
NORTH CENTRAL WISCONSIN

CITY           SKY/WX    TMP DP  RH WIND       PRES   REMARKS
IRONWOOD       PTSUNNY   66  63  88 W5        29.99R
MANITOWISH WTR CLOUDY    66  66 100 W6        30.03S FOG
ARBOR VITAE    CLOUDY    65  63  90 W3        30.04S FOG
EAGLE RIVER    CLOUDY    65  64  99 SW5       30.03S
LAND O LAKES   CLOUDY    67  65  94 W5        30.04S FOG
RHINELANDER    PTSUNNY   67  64  90 SW7       30.04F
PHILLIPS       CLOUDY    67  66  95 SW3       30.03S
ANTIGO         MOSUNNY   66  63  89 W6        30.05S
TOMAHAWK       PTSUNNY   66  63  90 CALM      30.05S
MERRILL        CLOUDY    66  64  95 CALM      30.04S
$$

WIZ013-073-121300-
NORTHEAST WISCONSIN

CITY           SKY/WX    TMP DP  RH WIND       PRES   REMARKS
IRON MOUNTAIN  MOSUNNY   61  59  93 CALM      30.01R
MARINETTE      CLOUDY    66  57  72 W5        30.01F
OCONTO         MOSUNNY   67  61  81 CALM      30.01F
$$

WIZ017-030-035>037-045-121300-
CENTRAL WISCONSIN

CITY           SKY/WX    TMP DP  RH WIND       PRES   REMARKS
MEDFORD        CLOUDY    66  64  94 W3        30.05S
WAUSAU         CLOUDY    69  63  81 NW5       30.03S
MOSINEE        CLOUDY    66  64  94 CALM      30.05S
MARSHFIELD     CLOUDY    68  65  90 W3        30.04S
WISC RAPIDS    PTSUNNY   69  63  81 CALM      30.04F
STEVENS POINT  PTSUNNY   66  61  83 CALM      30.04S
WAUPACA        CLOUDY    68  62  83 CALM      30.03F
SHAWANO        CLOUDY    68  61  78 CALM      30.03F
CLINTONVILLE   CLOUDY    64  61  88 CALM      30.02F
$$

WIZ038-039-048-051-121300-
FOX VALLEY

CITY           SKY/WX    TMP DP  RH WIND       PRES   REMARKS
NWS GREEN BAY  CLOUDY    68  62  81 CALM      30.02F
APPLETON       CLOUDY    66  61  82 CALM      30.04F
OSHKOSH        CLOUDY    69  64  84 S3        30.03S
FOND DU LAC    CLOUDY    69  62  78 CALM      30.04R
$$

WIZ022-050-052-121300-
EAST CENTRAL WISCONSIN

CITY           SKY/WX    TMP DP  RH WIND       PRES   REMARKS
STURGEON BAY   CLOUDY    64  57  77 S3        30.03F
MANITOWOC      CLOUDY    62  59  90 CALM      30.04F
SHEBOYGAN      CLOUDY    64  61  90 CALM      30.04F FOG
$$

LMZ563-521-522-541>543-121300-
LAKESHORE

STATION/POSITION TIME  TEMP    WIND        PRES    VSBY  WAVE
                       AIR SEA DIR/SP/G                  HT/PER
                 (UTC) (F)     (DEG/KT/KT) (MB)    (MI)  (FT/S)
SHEBOYGAN LKSHOR 1200   66      90/  2/  2 1017.2F
KEWAUNEE LKSHORE 1200   52     160/  4/  5 1017.6F
TWO RIVERS CG    1200   55                   N/A    3 1/2  1
NORTHPORT PIER   1200   64     180/  3/  7 1016.6S
N MID LAKE BUOY  1200   57 55  210/ 14/ 16 1016.1R         2/ 4
MENOMINEE LKSHOR 1200   69     230/  7/ 10 1017.0F
$$



USA.gov is the U.S. government's official web portal to all federal, state and local government web resources and services.